Wind_Speed
37 37 38 34 34 35 34 33 34 33 31 31 29 29 30 29 29 29 29 29 30 32 33 32 29 27 26 26 25 24 24 24 26 27 27 26 24 22 21 21 22 22 21 20 20 20 19 19 21 22 22 22 21 19 16 13 13 12 11 9 6 5 6 6 7 8 9 11 12 13 14 15 16 17 19 20 22 23 25 27 28 29 30 31 31
40 39 40 38 36 35 35 35 35 34 33 32 30 30 32 31 29 28 28 29 31 33 33 31 29 26 25 26 25 24 24 26 26 27 26 25 23 21 20 20 21 21 21 20 20 19 19 19 21 21 22 21 19 17 14 11 11 10 9 7 5 6 8 8 8 8 10 12 13 13 14 16 17 18 20 21 23 25 26 28 29 30 31 31 32
44 40 38 38 39 38 36 36 36 35 34 32 30 32 34 34 32 28 27 30 32 33 32 30 29 27 26 26 25 25 26 27 26 25 24 23 22 20 19 19 20 20 21 21 20 19 20 20 21 21 21 20 18 15 12 10 9 9 9 8 7 8 10 10 9 9 11 12 13 14 15 17 19 19 20 22 24 25 27 29 30 30 31 32 32
45 41 38 37 39 40 37 34 35 34 32 31 31 33 34 35 33 29 29 32 34 34 32 30 29 27 27 27 26 26 26 26 25 24 23 22 21 19 19 19 20 21 21 21 21 21 21 21 22 22 21 19 16 13 11 10 9 9 9 8 8 9 10 11 11 11 12 13 14 15 17 18 20 21 21 23 25 26 28 29 30 31 32 32 32
45 42 40 38 36 37 36 33 34 35 33 32 32 34 35 35 33 30 31 34 35 34 32 30 29 28 28 28 27 26 26 25 25 23 22 21 20 20 19 19 20 21 20 21 21 21 22 22 22 22 20 17 15 12 11 10 10 10 9 9 10 10 11 13 13 13 14 15 15 16 17 18 20 21 22 24 26 27 29 30 31 31 32 33 33
46 45 43 39 35 35 35 33 36 36 33 32 33 34 36 35 33 31 33 35 35 34 32 31 30 29 29 28 27 26 25 25 23 22 21 20 21 21 20 21 22 22 20 20 20 21 21 21 21 20 18 15 13 12 12 12 11 10 10 10 11 13 13 14 15 15 15 16 17 17 17 18 19 21 22 24 26 28 30 31 31 32 33 33 34
47 48 46 42 38 36 35 34 36 38 34 32 34 35 36 35 33 33 34 36 36 34 33 32 31 31 30 29 27 25 24 23 23 22 21 21 22 22 21 22 23 23 21 20 20 20 20 20 20 18 16 13 12 13 13 13 12 12 12 12 14 16 16 15 16 17 17 17 18 19 18 19 20 22 23 25 26 28 30 32 33 33 33 34 35
48 49 48 45 43 40 37 33 35 38 36 34 35 36 37 37 34 33 35 35 35 34 33 32 32 31 30 28 26 24 23 22 22 22 21 21 22 22 22 22 23 23 21 20 20 20 20 19 18 16 14 13 13 13 13 13 13 13 13 14 15 17 18 17 17 18 19 19 19 20 20 20 22 23 25 26 27 28 30 32 34 34 34 35 36
47 46 45 44 43 41 37 32 35 38 37 37 38 38 38 37 34 33 34 34 34 33 32 32 32 30 28 27 25 23 22 22 22 22 20 20 21 22 22 22 22 22 20 20 20 20 20 18 17 15 13 13 13 13 13 13 13 14 15 16 17 18 18 19 19 20 20 20 21 21 22 22 23 25 26 28 28 29 31 33 34 35 36 37 38
47 45 42 39 38 39 35 33 36 38 38 38 38 38 37 35 33 32 33 33 33 33 32 32 31 29 27 25 23 22 22 22 22 21 19 20 21 21 21 21 20 20 20 19 20 20 19 17 16 14 14 14 14 13 13 13 14 15 16 17 18 18 19 20 20 20 21 21 21 22 23 24 26 27 28 29 31 32 33 34 35 37 37 38 39
45 43 40 38 38 37 33 30 33 37 36 35 36 36 35 33 31 31 31 31 33 33 32 31 29 28 26 23 21 20 21 22 21 19 18 19 20 19 19 20 19 19 19 19 20 20 18 17 15 15 15 15 15 14 13 14 15 16 17 18 18 19 20 21 21 21 21 21 22 23 24 25 27 29 30 32 33 34 35 35 37 38 39 39 40
40 41 43 42 38 34 28 26 34 37 32 32 35 34 33 31 30 29 30 31 32 33 31 28 27 25 24 21 20 20 20 20 19 17 17 17 18 18 19 19 19 19 19 18 19 19 17 16 16 16 16 17 16 14 14 16 17 17 18 19 19 20 21 21 22 21 21 22 22 23 24 26 28 30 32 33 35 37 37 37 38 39 40 41 41
38 40 43 41 36 32 28 30 38 38 31 32 35 33 32 32 30 29 29 31 33 32 29 26 25 24 22 21 20 20 20 19 17 16 15 16 17 17 18 19 19 19 19 17 18 18 17 16 17 18 18 17 17 16 16 17 18 18 19 19 20 21 21 22 22 22 22 22 23 24 26 28 30 31 33 35 36 37 38 39 39 40 41 42 43
35 38 40 37 34 31 29 34 40 37 31 34 34 32 33 33 31 30 31 33 32 29 27 25 24 23 22 22 21 20 18 16 15 14 14 15 16 17 18 18 18 19 19 17 17 17 17 17 18 19 19 18 17 16 17 18 19 19 19 20 21 21 22 22 22 22 22 23 24 25 27 29 31 33 34 36 37 38 39 39 40 41 42 43 43
34 38 38 35 32 30 31 36 40 35 32 35 34 33 35 34 33 32 32 33 30 27 26 25 23 22 22 22 20 18 16 15 14 14 14 15 16 17 18 18 18 19 19 18 17 17 18 19 20 20 19 18 17 17 18 19 19 19 20 21 22 22 23 23 23 23 23 24 25 26 28 30 32 34 35 36 37 38 39 40 41 42 43 44 45
36 38 37 34 31 31 33 36 38 35 33 35 36 34 35 35 34 33 33 32 28 27 26 24 22 22 22 21 19 16 15 14 14 13 13 15 16 17 18 18 18 18 18 18 18 18 19 20 20 20 19 18 18 18 19 19 19 20 21 21 22 23 23 23 23 23 24 25 26 27 29 31 33 35 36 37 38 39 39 40 41 42 44 45 46
37 37 35 33 31 33 35 35 36 35 33 35 36 35 36 36 35 34 33 30 27 27 26 23 22 22 21 20 17 15 14 14 14 13 14 15 16 17 18 18 18 18 18 19 19 19 19 20 21 20 19 18 18 18 19 19 20 20 21 22 23 23 24 24 24 24 25 27 28 29 31 33 35 37 38 38 39 40 40 41 41 43 44 46 46
35 33 32 31 31 35 36 34 35 35 34 36 37 37 38 38 36 33 31 28 27 28 26 23 21 21 20 18 16 15 15 15 15 14 14 15 16 17 17 17 17 17 18 20 20 19 20 21 21 19 18 18 18 18 19 20 20 21 22 23 23 24 24 24 25 26 27 29 30 31 33 35 37 39 39 40 40 41 41 41 42 43 44 45 46
34 31 30 29 31 36 34 32 33 33 34 38 39 39 40 38 35 32 30 28 28 27 25 21 20 19 19 18 16 15 15 16 15 14 14 15 15 16 16 16 16 16 19 21 21 20 20 21 20 19 18 18 18 18 19 20 21 22 23 23 24 24 24 25 26 28 29 30 32 33 35 37 39 40 41 41 41 42 42 42 43 44 45 45 46
34 33 30 27 30 34 32 29 30 31 34 38 39 39 39 37 33 31 29 29 28 27 24 20 18 18 19 18 16 15 15 16 16 15 14 14 15 16 16 16 15 16 19 20 21 21 21 21 20 19 19 18 18 19 20 21 21 22 23 24 24 24 25 26 28 29 31 32 34 35 36 38 40 41 42 42 42 42 42 43 44 44 45 45 46
31 30 27 26 29 31 30 29 30 32 35 38 39 39 38 35 32 30 29 28 28 26 23 20 19 18 18 18 17 15 15 16 16 15 15 14 15 16 17 16 15 16 18 20 21 21 22 22 21 20 19 18 18 19 20 21 22 23 24 24 24 25 26 28 30 32 33 34 36 36 37 39 40 42 43 43 43 43 43 44 44 45 45 45 46
29 24 21 25 30 29 29 30 30 32 34 35 36 37 35 33 30 29 28 27 27 24 22 21 20 18 18 18 17 16 16 16 17 16 15 15 16 17 17 16 15 16 18 20 21 21 22 22 21 21 20 19 20 20 21 22 24 24 24 25 25 26 28 30 32 34 36 37 37 37 37 39 40 42 43 43 43 43 43 44 45 45 45 45 45
35 30 23 24 30 30 30 31 31 31 31 32 33 33 33 31 29 28 27 26 25 23 23 22 20 17 17 17 17 16 16 17 17 16 16 16 17 17 17 16 16 16 18 20 21 21 21 21 21 21 20 20 21 22 22 24 25 25 25 26 27 28 30 32 34 36 37 37 35 34 35 37 39 41 42 42 43 43 44 44 44 44 44 45 45
40 40 32 28 29 32 33 32 32 31 30 31 31 31 30 29 28 26 25 24 24 24 23 22 19 16 15 16 17 17 17 18 18 16 16 17 18 18 18 17 17 17 18 19 20 20 20 21 21 21 21 22 23 23 24 26 26 27 27 27 29 31 33 34 34 34 33 31 30 31 33 35 37 39 40 41 42 43 43 43 44 44 44 44 44
42 42 39 33 32 34 34 33 32 31 31 30 30 30 29 28 27 25 24 24 25 25 24 22 19 16 14 16 16 17 18 18 18 16 17 18 19 18 18 17 17 18 18 19 19 18 19 20 21 22 22 23 24 25 27 28 28 28 28 30 31 32 32 31 30 30 29 29 29 30 31 33 35 37 38 40 41 42 42 42 43 43 44 43 42
44 41 38 34 34 35 34 34 33 32 31 30 29 28 28 27 27 25 24 25 25 26 24 22 19 16 14 15 16 17 18 19 18 17 18 19 19 19 18 18 18 18 18 19 19 19 20 21 21 22 22 23 25 26 28 28 28 29 31 31 30 29 28 28 28 28 29 29 30 30 31 32 34 36 38 39 40 40 41 41 42 43 43 41 39
48 44 41 37 37 37 36 35 33 32 31 30 29 28 27 27 27 26 25 26 26 26 25 23 20 17 15 16 17 18 19 19 18 17 19 20 20 19 19 19 19 19 19 20 20 21 21 21 22 22 23 24 25 26 28 28 28 30 32 30 27 28 29 29 29 28 29 30 30 31 32 33 34 36 37 38 39 39 40 40 41 42 41 39 38
47 45 45 43 40 39 38 35 33 32 32 31 30 29 27 28 28 28 27 27 27 27 26 24 21 18 16 17 19 19 20 20 19 18 20 21 20 20 19 19 19 20 21 21 21 21 21 21 22 22 22 24 25 26 28 28 29 30 30 28 28 30 31 30 29 29 30 30 31 32 32 33 34 35 36 37 37 38 39 40 41 40 38 37 38
42 43 43 41 39 39 38 35 33 32 30 30 30 29 28 29 29 29 29 28 28 28 26 24 21 19 18 19 20 21 22 22 20 19 21 21 21 21 20 19 20 21 21 21 20 21 21 21 21 22 23 24 25 27 29 29 29 30 29 30 31 31 30 30 30 30 30 31 31 32 32 33 33 34 34 35 36 37 38 39 39 38 37 36 38
39 39 37 35 34 36 36 35 35 32 28 27 29 29 29 29 30 30 29 29 29 28 26 23 22 21 21 21 21 22 23 23 21 21 21 22 21 21 20 20 22 22 22 21 21 21 22 22 22 23 24 25 27 28 29 28 29 29 29 30 31 31 30 30 30 30 31 31 32 32 31 31 32 33 33 34 35 36 37 38 37 36 35 36 37
37 36 33 31 32 33 34 34 33 31 28 28 29 30 29 29 30 30 30 29 29 28 25 23 23 23 23 22 22 23 24 24 22 22 23 22 22 22 21 22 23 23 22 22 22 23 23 23 24 24 25 26 27 29 28 28 28 29 30 30 31 31 30 30 31 31 31 32 32 31 30 30 31 32 33 34 35 36 36 36 35 34 35 36 37
34 32 32 33 34 33 31 31 30 29 28 29 30 30 29 28 29 30 30 31 31 29 25 23 25 25 23 22 22 24 25 24 23 23 23 23 23 22 22 23 24 24 23 23 23 24 24 25 25 25 26 26 27 28 28 28 29 29 30 31 32 31 30 31 31 30 31 32 31 29 29 30 31 33 34 34 35 35 36 35 34 33 34 35 36
32 29 31 34 34 32 29 29 29 28 28 29 30 30 29 28 30 32 32 32 32 29 26 25 26 25 22 22 23 24 24 23 23 23 23 22 22 22 22 24 24 25 24 23 24 25 25 26 26 26 26 26 26 27 28 29 30 31 32 32 32 31 30 31 31 30 31 32 30 29 29 31 32 33 34 34 34 35 35 34 32 33 34 34 35
33 30 32 33 32 29 28 29 29 27 28 30 31 31 30 30 32 34 34 34 33 30 28 27 26 23 21 21 23 23 24 23 23 23 22 21 21 22 23 24 25 26 25 24 25 25 26 26 27 26 26 26 27 28 29 30 31 32 32 32 32 30 30 31 31 31 32 31 29 29 30 32 33 33 33 34 34 35 34 32 31 32 33 34 35
33 31 32 33 32 29 28 27 27 27 29 32 32 32 31 31 33 35 35 35 33 31 30 28 24 21 20 21 22 23 23 23 23 22 22 22 23 23 24 25 27 27 26 25 26 26 27 27 26 26 26 26 28 29 31 31 32 32 32 32 31 30 30 32 32 31 31 30 29 29 31 33 33 33 33 34 34 34 33 31 31 31 33 34 35
31 30 30 30 31 31 29 28 27 28 31 33 32 32 32 32 34 35 35 34 33 32 30 26 22 21 21 22 23 23 23 23 23 23 24 24 25 25 26 27 28 28 27 27 27 27 27 26 25 26 27 27 28 31 32 33 33 32 31 30 29 29 31 32 32 32 30 29 29 30 32 33 33 33 34 34 34 34 32 31 30 31 33 34 35
30 29 27 26 27 27 26 26 27 28 31 33 33 32 32 33 35 35 34 34 34 32 28 25 23 22 22 23 23 23 23 24 24 25 25 26 27 27 27 28 29 28 28 28 28 27 27 26 25 26 27 27 29 32 34 34 34 33 32 30 28 29 31 33 34 32 29 28 30 31 31 32 33 34 34 34 34 32 31 29 29 30 33 34 35
29 26 23 22 22 22 23 25 28 30 33 34 34 33 33 34 34 33 34 34 33 31 28 26 25 23 23 23 22 22 23 24 25 25 26 26 27 27 27 28 28 28 28 27 27 27 26 25 25 26 27 28 31 33 35 35 35 35 32 28 26 28 31 33 32 29 27 29 31 31 31 32 34 34 34 34 33 31 29 27 28 30 33 34 34
27 22 19 19 19 20 22 26 29 32 33 34 34 34 35 34 33 33 34 33 32 30 29 27 26 25 25 23 22 23 24 25 26 26 25 25 26 26 27 28 28 27 26 26 26 26 25 25 26 28 30 31 33 34 35 35 37 37 32 26 25 29 31 30 29 29 30 32 33 32 33 34 34 34 34 33 32 30 28 26 28 31 32 34 34
21 18 18 18 18 19 21 24 27 30 33 34 34 34 35 34 33 33 33 33 32 32 31 29 28 27 26 25 24 25 26 27 28 26 24 24 25 26 27 27 26 25 25 25 25 26 27 28 30 33 34 34 35 35 34 34 36 35 31 28 29 30 29 29 30 33 34 34 33 33 34 34 34 34 33 31 30 29 27 27 28 30 32 33 33
22 22 23 21 20 20 21 22 24 27 31 33 34 34 34 33 33 33 34 34 34 33 31 30 30 29 28 27 26 27 27 27 27 25 24 25 25 25 25 24 24 24 25 26 27 29 31 33 34 36 36 35 35 35 35 34 33 31 30 31 32 32 30 30 31 32 32 32 32 33 33 33 33 33 32 30 29 28 27 28 29 31 32 33 33
28 26 26 26 26 25 23 22 23 26 30 33 34 34 33 32 33 34 35 35 34 33 31 30 30 29 28 27 26 26 26 26 27 26 25 24 23 23 23 23 24 25 26 28 30 32 34 35 36 36 36 36 36 36 35 34 32 31 33 36 35 33 32 31 30 30 31 31 32 33 33 33 32 32 31 30 29 28 28 29 30 31 31 32 32
31 28 26 27 28 27 25 24 25 28 31 33 34 33 32 33 34 36 36 35 34 31 30 29 29 27 26 25 26 26 26 26 26 26 24 23 23 23 24 25 26 27 29 31 32 34 35 36 36 37 37 36 36 35 34 32 31 32 34 36 35 33 32 31 30 30 30 31 32 32 32 32 32 32 31 30 29 29 29 29 30 31 31 31 31
34 31 29 28 27 26 25 26 29 31 32 33 33 33 34 35 36 36 35 34 32 30 29 28 26 25 24 24 25 25 25 26 26 25 24 24 24 24 25 27 27 29 31 33 34 35 36 36 37 37 37 36 35 33 32 33 33 34 34 34 34 33 31 30 30 30 30 31 32 32 32 32 32 32 31 30 30 30 30 31 31 30 30 30 30
38 34 31 29 27 26 27 29 30 31 31 32 33 34 35 35 35 35 33 32 30 29 28 26 25 24 25 25 26 26 26 26 26 25 24 24 25 26 27 29 30 32 34 35 37 37 37 37 36 35 34 34 33 32 32 33 33 33 33 33 32 31 31 30 30 30 30 31 31 32 33 32 32 32 32 31 31 31 31 32 31 30 29 29 30
41 38 34 31 30 30 31 32 31 31 33 34 34 34 34 34 34 33 31 30 29 28 26 25 25 25 25 26 25 25 25 25 24 24 25 25 26 28 30 32 33 35 36 37 37 37 36 36 35 33 32 31 31 32 32 33 33 33 33 32 31 31 31 31 30 30 31 31 31 32 33 33 33 32 32 32 31 31 32 32 31 30 30 30 30
38 39 38 37 36 35 34 34 35 35 35 35 34 33 33 33 32 30 29 28 27 26 25 25 25 26 26 25 24 23 24 24 24 24 25 26 28 30 32 33 34 35 36 36 36 36 35 34 33 32 31 31 31 32 32 32 32 32 31 31 30 31 31 31 31 31 31 31 32 32 32 33 32 32 32 32 32 32 32 32 32 31 30 30 31
35 38 38 39 40 38 37 36 35 35 34 33 32 32 32 31 29 28 27 26 25 25 26 26 26 26 25 24 23 23 23 23 24 25 25 27 30 31 32 33 33 34 34 34 34 34 34 33 32 32 31 30 31 31 32 31 31 31 30 30 30 31 31 31 31 31 31 31 32 32 32 32 32 32 32 32 32 32 32 32 32 32 31 31 32
32 32 33 37 39 39 36 34 33 33 33 32 32 32 30 29 27 26 25 24 25 26 27 27 27 26 25 24 24 24 24 25 26 26 28 30 32 32 33 33 33 33 33 32 32 32 31 31 31 31 30 29 29 30 31 30 30 30 30 30 31 31 31 31 32 32 31 32 32 32 33 32 32 32 32 32 33 33 33 33 33 33 32 31 32
27 26 29 34 37 37 37 35 34 34 33 32 31 30 29 29 28 27 27 26 27 27 26 26 26 26 25 25 25 25 27 28 28 29 30 32 33 33 33 33 33 33 32 32 32 32 31 31 31 30 29 28 28 30 30 30 30 30 30 30 31 31 31 32 32 32 32 32 33 33 33 34 34 33 33 34 34 34 34 34 33 33 32 32 33
25 24 27 31 33 35 37 36 33 32 31 29 29 29 29 29 29 29 29 28 27 26 25 25 25 25 25 26 27 28 29 30 30 31 33 33 33 33 33 33 33 33 32 32 32 32 32 32 31 30 28 27 29 30 31 31 31 30 29 30 31 31 32 32 32 32 32 33 33 34 34 35 35 35 35 35 35 35 35 34 33 32 32 33 34
Wind_Direction
247 245 244 241 246 253 256 259 262 265 270 273 275 277 279 283 286 284 283 284 283 281 282 285 288 288 287 287 287 289 292 294 296 299 301 301 304 310 311 310 309 309 312 314 312 309 307 306 308 311 312 311 310 310 311 309 305 304 304 305 306 282 269 268 266 272 283 292 298 301 302 304 308 311 313 315 316 318 320 322 323 323 322 321 319
247 245 247 247 249 253 257 259 261 264 268 272 273 274 275 279 288 289 282 280 280 278 280 283 285 285 285 285 285 289 291 292 295 298 299 301 304 307 307 307 308 310 313 313 309 306 304 304 306 309 309 309 308 307 306 301 299 301 300 298 285 265 265 267 268 273 281 287 293 297 303 309 311 313 314 314 317 319 322 323 323 321 320 319 318
250 248 248 252 254 255 258 260 261 264 267 270 272 272 273 275 281 288 282 277 277 276 278 280 281 283 283 283 284 287 289 291 295 296 297 300 301 301 303 306 308 311 313 311 307 305 304 305 306 306 306 306 304 302 298 293 296 299 296 289 276 268 271 275 277 278 284 290 297 304 310 312 311 311 313 315 319 321 322 322 321 319 318 317 316
249 249 249 252 256 255 257 259 261 265 268 271 273 273 275 274 276 283 281 276 275 275 277 278 280 283 281 281 282 283 286 290 293 294 297 298 297 298 302 305 309 312 313 309 306 305 306 307 306 304 304 303 301 297 292 291 297 297 292 285 277 276 281 287 289 291 296 300 304 310 312 312 310 311 314 317 319 320 320 320 318 318 316 315 315
249 249 249 252 255 253 253 256 261 266 269 273 275 273 273 274 274 279 278 274 274 274 276 277 279 280 278 277 279 282 286 289 290 292 294 294 294 297 301 304 308 310 308 305 304 305 306 306 305 304 303 300 298 295 292 294 298 295 290 285 283 285 289 295 298 299 301 303 305 308 308 307 307 310 314 317 318 318 318 317 316 316 315 314 314
250 250 250 250 249 247 249 257 264 267 270 271 271 269 269 271 273 274 275 273 272 273 273 275 276 276 275 275 278 283 287 287 288 288 289 290 293 296 298 301 304 304 302 301 303 305 306 305 303 302 299 295 292 291 293 295 297 295 291 289 290 293 295 296 298 300 301 301 303 303 303 303 304 308 312 315 317 317 316 315 315 315 314 314 315
253 253 253 250 246 247 253 260 265 267 267 266 265 265 267 270 271 271 271 270 270 270 272 273 274 273 273 275 278 282 285 285 284 284 285 288 292 294 295 299 300 300 300 302 304 306 304 302 299 296 293 287 283 286 291 293 292 290 288 289 292 295 296 296 297 299 300 301 301 302 302 303 305 308 312 314 317 317 315 314 315 315 315 316 316
255 255 254 252 251 254 260 261 262 263 262 262 263 263 266 268 269 268 267 267 268 269 271 273 273 272 273 274 277 278 279 280 280 280 283 287 290 292 295 298 298 298 301 302 303 302 300 298 294 290 285 278 277 282 286 285 284 285 286 289 291 294 296 297 297 298 299 300 302 302 303 304 306 309 312 314 315 316 316 315 314 315 317 317 317
251 254 254 255 254 256 261 260 256 257 258 260 262 262 263 265 265 265 264 265 266 268 269 270 270 271 272 274 275 273 271 273 277 279 283 288 290 292 295 296 296 297 301 301 299 297 296 294 291 286 278 273 276 279 278 279 281 284 287 289 290 292 294 296 297 297 299 301 302 302 303 305 307 310 311 312 314 315 316 316 315 316 318 318 318
246 250 252 251 253 258 259 256 254 256 257 258 260 261 262 263 262 262 262 262 264 266 267 268 269 269 271 273 272 268 267 270 274 278 284 288 289 293 295 295 294 296 300 299 296 293 292 290 287 281 274 274 277 278 278 280 282 284 286 288 289 291 292 294 295 298 301 302 301 301 303 306 309 310 311 312 313 313 314 315 316 317 317 317 316
245 247 248 248 253 256 252 252 257 257 257 258 260 261 261 260 260 259 259 261 263 264 266 267 268 269 270 269 265 264 266 269 272 278 284 286 288 292 295 294 294 296 299 298 293 290 289 286 283 277 275 277 279 279 280 281 282 283 284 286 288 290 291 293 296 299 301 300 300 301 304 307 309 310 311 312 313 311 311 314 315 316 316 315 315
247 244 248 251 251 248 248 257 262 259 258 260 260 259 259 258 257 257 258 260 261 263 265 266 266 267 265 259 257 260 263 266 272 278 282 284 288 293 295 295 294 296 297 296 292 289 285 281 279 275 276 278 278 278 279 280 282 282 283 285 287 289 291 294 296 298 299 298 299 302 305 307 308 310 311 312 311 311 312 313 315 315 315 314 314
246 245 250 251 245 241 250 258 258 259 261 261 258 255 255 255 255 256 257 258 260 262 265 265 263 260 255 250 251 257 261 267 273 277 279 283 289 293 295 294 293 295 296 294 289 286 282 277 275 276 276 276 276 277 278 280 281 281 282 285 287 289 292 294 296 297 297 298 299 303 305 307 308 310 310 310 310 311 312 313 313 314 314 313 313
245 248 251 248 241 242 249 250 253 258 258 256 253 252 252 253 253 255 256 257 260 263 264 261 258 253 248 246 249 255 262 268 272 276 281 285 289 292 292 292 291 294 296 292 284 281 279 275 274 276 276 274 274 276 277 278 279 281 283 286 288 290 292 295 296 296 297 298 301 303 305 307 308 308 309 309 310 311 311 312 312 312 312 312 313
243 248 249 245 242 244 245 245 251 255 253 251 250 249 250 251 252 254 256 259 261 263 261 256 252 249 245 245 250 255 262 269 274 280 284 287 289 290 289 289 290 293 293 289 281 277 277 275 274 275 274 273 273 274 276 277 280 282 285 287 289 292 294 296 296 296 298 299 302 303 304 306 307 307 308 309 310 310 311 311 311 310 310 311 312
243 245 247 247 248 251 247 245 249 250 248 248 247 248 250 251 252 254 256 260 261 260 258 253 248 246 245 246 251 257 263 268 275 281 283 285 286 285 286 287 289 291 289 285 280 276 276 275 274 274 272 272 272 273 276 278 281 284 286 289 293 295 296 296 296 297 299 301 302 303 303 305 306 307 308 309 310 311 310 310 310 309 310 311 312
244 244 248 252 254 254 250 247 248 248 246 246 246 247 249 250 251 253 256 260 261 258 255 251 246 244 246 249 254 260 263 267 272 277 281 282 282 282 284 285 288 290 286 282 278 276 276 275 274 273 271 270 272 274 277 280 283 286 289 293 295 296 296 296 298 300 301 302 302 302 302 305 306 307 308 309 310 310 310 309 309 310 310 310 311
245 245 247 250 252 252 250 248 248 248 244 243 244 244 245 248 249 252 257 259 258 255 252 249 246 245 247 251 255 259 263 267 270 275 279 281 281 281 282 285 289 290 285 280 277 276 275 274 273 271 269 269 271 276 280 283 287 290 293 295 295 296 297 299 301 303 303 302 302 302 303 304 306 307 307 309 310 309 309 309 309 310 310 310 310
247 246 245 246 249 250 250 248 247 246 243 240 241 241 243 246 248 251 256 258 255 252 251 249 245 245 248 251 254 257 261 267 270 274 277 279 281 281 282 286 290 290 285 280 277 275 273 273 272 268 266 268 273 279 283 287 290 292 293 294 295 298 301 304 304 303 303 302 302 302 303 304 306 307 307 307 308 309 309 309 309 310 310 309 310
248 251 251 248 248 247 246 245 242 240 239 238 239 241 244 246 248 251 255 257 255 250 250 249 244 244 247 250 252 254 259 266 270 274 277 280 282 281 282 287 290 289 285 280 276 272 270 271 269 265 264 269 275 281 286 290 292 292 293 295 297 301 305 305 304 303 302 302 301 302 303 304 304 305 305 306 307 307 307 308 308 309 309 310 311
251 256 252 242 241 242 240 238 237 236 235 236 238 240 244 246 247 250 254 256 253 249 249 248 244 244 246 248 250 252 258 266 270 273 277 281 283 283 285 288 288 286 283 279 275 269 267 267 265 264 266 271 278 283 288 291 291 292 294 297 299 303 304 303 302 302 301 300 300 301 302 302 302 302 304 305 305 306 307 307 308 308 309 310 311
250 249 244 235 236 237 236 236 236 237 237 237 239 241 243 246 246 249 254 254 250 247 246 245 244 245 246 248 250 252 258 265 270 274 279 283 284 286 289 289 285 282 279 277 273 268 265 264 263 264 267 273 278 283 287 290 291 293 295 297 300 301 301 301 301 300 300 300 300 301 301 300 300 301 302 303 304 305 306 307 307 308 309 310 312
246 243 240 237 236 234 234 236 236 237 238 237 239 242 243 244 245 248 252 252 248 244 243 245 245 245 245 248 251 253 259 265 269 275 280 283 286 287 289 288 284 279 275 273 272 268 265 263 263 264 268 273 277 282 286 289 291 293 295 297 298 298 298 299 300 301 301 301 301 301 300 298 298 299 301 302 303 305 306 306 308 309 309 311 313
245 244 240 234 236 235 234 237 238 237 237 238 239 241 242 243 244 246 249 249 245 242 243 246 246 244 244 248 252 254 259 264 269 276 281 284 286 286 286 285 282 278 274 271 269 267 264 263 263 265 269 273 277 282 285 287 290 293 295 297 298 298 298 299 300 302 303 303 302 301 299 297 297 298 300 301 303 304 305 306 308 308 309 311 313
244 245 239 232 236 239 237 238 240 239 238 240 240 240 241 242 243 244 244 243 243 243 245 247 246 244 245 250 255 257 260 264 269 276 280 283 284 285 284 282 280 278 274 270 269 267 265 264 265 268 271 275 279 281 284 287 292 295 297 299 299 300 300 300 301 304 304 303 303 302 300 298 298 299 300 301 303 304 305 307 307 308 310 312 312
241 241 238 232 232 237 239 238 239 240 240 241 241 240 240 241 241 240 238 239 242 244 246 247 246 244 247 254 258 259 261 264 269 274 278 280 283 283 281 279 278 277 273 269 268 267 267 267 269 272 275 278 280 282 286 290 295 298 299 298 300 302 302 302 304 304 304 305 305 304 303 302 301 300 300 301 303 304 306 306 307 308 310 312 312
239 239 240 236 230 233 240 240 237 239 240 241 240 239 238 239 239 237 235 237 241 244 247 248 247 246 250 257 260 261 262 264 267 271 275 278 280 280 278 277 277 276 272 268 267 267 269 271 273 275 277 280 283 286 290 293 296 298 297 297 301 304 305 305 306 306 307 307 307 306 305 303 301 300 301 302 304 305 306 306 307 308 310 311 313
236 237 239 237 230 232 239 240 238 238 239 239 239 239 238 236 236 234 235 238 241 244 247 247 248 250 254 259 261 261 262 263 265 269 273 276 277 276 275 275 275 274 271 270 271 271 273 274 276 278 281 284 287 289 291 293 296 297 297 298 303 306 306 307 307 308 308 307 306 306 304 302 301 301 302 303 304 305 306 307 308 309 310 311 314
231 231 235 234 231 232 236 239 240 238 238 239 239 240 238 235 234 235 238 241 243 245 247 247 249 253 257 260 262 260 260 262 264 267 270 273 274 273 272 271 271 270 271 272 274 275 276 278 279 282 284 286 288 289 291 295 297 298 298 300 303 304 306 307 308 307 306 305 305 305 303 302 302 302 302 304 306 307 307 308 309 309 310 312 316
229 229 234 237 234 232 233 236 238 237 237 238 238 239 237 234 233 235 239 242 244 246 248 248 251 256 260 262 261 259 259 261 263 266 268 270 271 271 270 268 267 267 269 271 273 275 277 280 282 284 286 287 288 289 293 296 297 297 297 299 301 302 304 306 305 305 304 303 304 304 302 302 302 303 304 306 308 308 308 308 309 309 311 314 318
229 233 237 237 234 232 231 233 236 237 237 236 235 235 234 232 232 235 238 240 243 245 247 249 254 257 261 263 262 259 258 261 263 265 266 267 268 268 267 266 265 265 266 269 272 274 277 280 283 284 286 288 289 291 294 296 296 296 296 297 299 301 303 304 303 303 302 302 303 303 302 302 304 305 308 309 310 309 309 309 309 310 312 316 319
227 230 232 232 232 231 229 230 233 236 237 236 235 234 232 231 233 235 238 239 241 244 247 249 253 257 262 264 262 258 258 261 263 264 266 267 267 267 266 264 263 263 265 267 271 274 278 281 284 286 287 288 289 291 293 295 295 295 295 296 298 300 301 301 301 301 301 302 303 303 303 305 307 308 310 310 310 309 309 309 309 311 314 317 320
223 225 229 231 231 229 227 228 229 232 235 237 236 234 231 230 233 236 237 239 241 244 246 248 253 259 264 263 260 258 259 261 262 263 265 267 267 265 264 263 263 264 266 269 273 277 281 283 285 287 287 286 286 288 290 292 292 292 292 294 296 297 299 300 300 301 301 302 303 303 305 307 309 310 311 310 310 310 310 310 310 312 316 319 321
225 226 228 230 230 227 224 225 226 230 234 235 234 232 228 228 232 235 237 238 241 243 245 249 256 262 263 259 257 257 258 259 260 261 264 265 264 262 262 263 265 267 270 273 276 279 282 284 285 286 286 286 287 288 288 289 288 289 290 292 294 296 298 300 301 301 302 303 302 304 307 309 310 311 311 310 310 311 311 311 311 314 318 320 321
233 232 230 232 233 229 226 227 228 230 231 233 232 230 227 228 231 234 236 238 240 242 245 251 257 259 255 253 253 254 256 257 258 259 261 262 262 261 262 263 265 270 274 276 277 279 281 282 284 286 287 288 289 288 288 289 289 288 290 292 293 296 298 300 300 301 302 302 302 305 308 309 310 311 311 311 312 313 313 311 312 316 319 320 321
233 233 233 234 235 233 231 231 232 230 228 228 229 228 227 228 231 234 236 237 239 241 246 251 251 248 246 249 252 254 254 255 256 258 259 260 261 261 261 263 268 272 275 276 277 278 279 281 282 285 287 289 291 290 290 291 291 291 292 292 292 295 298 300 301 301 300 300 303 306 308 308 309 311 311 312 313 315 313 311 312 316 319 320 321
226 229 233 235 235 234 230 229 229 228 227 226 226 225 226 227 231 233 235 236 239 242 245 245 242 241 244 249 253 256 257 258 259 260 260 260 262 262 263 266 269 272 274 275 277 278 279 281 283 285 287 290 291 291 291 292 292 292 292 289 289 295 299 301 301 299 296 299 304 307 307 308 310 311 312 313 315 315 313 311 312 316 319 321 321
223 224 229 235 237 233 226 224 225 226 227 228 225 223 225 227 230 232 233 236 240 242 242 239 237 240 245 252 258 262 264 264 262 261 263 265 265 266 266 267 268 271 273 275 277 279 281 283 285 286 287 290 292 293 295 295 296 296 292 285 286 296 301 302 300 295 295 302 306 307 308 309 311 312 312 313 315 315 313 311 313 316 320 322 322
221 220 224 229 230 227 221 221 223 226 228 227 223 222 225 227 228 231 234 237 239 240 239 237 237 241 248 257 264 267 270 269 263 263 267 268 267 266 266 267 269 272 274 275 277 280 282 285 286 287 289 292 294 296 297 296 296 295 290 283 288 299 302 301 297 293 297 304 307 307 308 310 311 312 312 313 316 315 312 310 313 317 321 322 322
223 227 233 232 228 228 227 224 224 225 226 225 222 222 225 226 227 230 232 235 237 239 240 239 240 245 252 261 267 271 274 272 265 265 267 264 264 265 265 268 270 271 272 274 276 280 282 284 286 288 291 294 295 296 296 295 295 292 286 284 291 298 299 295 291 292 297 302 304 306 308 310 311 311 311 313 315 314 311 309 311 316 320 322 322
243 246 247 243 236 235 234 232 228 224 222 222 221 222 225 226 227 229 231 234 238 240 241 242 245 250 256 263 268 271 271 266 262 263 264 261 261 263 264 265 267 269 272 275 277 280 282 284 286 288 291 293 294 294 294 293 291 287 286 291 297 299 298 294 292 293 296 299 302 305 308 309 309 309 310 312 313 312 310 308 309 313 317 320 320
253 255 255 253 250 247 243 239 234 225 222 222 223 224 225 225 226 229 232 236 240 242 244 247 250 255 260 263 265 267 266 261 260 262 262 259 258 260 261 264 267 271 274 277 278 280 282 285 288 289 290 290 291 292 293 292 287 283 286 293 297 298 297 295 295 295 297 299 302 305 307 308 308 308 309 310 311 311 309 307 308 311 314 317 317
250 252 252 252 252 249 244 238 232 225 222 222 223 224 224 225 227 231 235 238 242 245 248 251 254 257 259 259 259 261 260 256 256 256 255 255 257 260 264 267 270 274 276 277 279 281 283 286 288 288 287 288 288 290 290 289 288 287 288 292 295 295 295 296 296 297 297 300 303 305 306 307 306 307 308 309 309 309 307 306 307 310 313 314 315
250 248 246 247 246 243 237 229 223 221 220 220 221 222 223 225 228 232 236 240 244 247 250 252 255 255 253 252 252 253 251 250 250 252 254 257 261 264 269 272 274 275 276 278 280 282 284 285 285 285 286 286 287 288 288 287 288 289 290 292 293 293 295 296 296 296 298 301 303 305 306 306 306 307 308 308 308 307 306 305 307 309 311 312 313
243 240 238 239 234 227 223 219 216 216 216 217 219 220 222 226 230 234 238 241 244 247 249 251 250 249 248 247 248 248 248 249 250 253 256 260 265 268 272 274 275 276 277 279 281 282 283 283 283 284 285 286 287 288 288 288 288 289 290 291 291 292 294 294 295 296 299 301 303 305 306 306 307 308 308 307 306 305 305 305 306 307 309 310 311
236 233 229 227 222 217 216 216 213 212 212 214 217 219 222 226 230 234 238 241 244 246 247 247 245 245 245 245 246 246 248 250 252 255 261 265 269 273 274 275 276 277 278 280 281 282 282 282 282 284 284 285 286 287 287 286 287 287 288 289 290 291 292 293 294 297 299 301 303 304 306 307 308 308 307 306 304 304 305 305 305 306 306 307 310
236 230 223 220 221 221 220 219 216 216 216 215 217 220 223 227 231 235 239 243 245 245 244 242 240 240 242 244 246 247 250 254 258 263 269 272 275 276 276 277 277 278 279 280 281 281 281 281 282 284 285 285 285 284 284 284 284 285 287 288 288 290 291 292 295 297 299 301 302 304 306 307 308 308 307 306 304 304 305 305 305 304 304 304 308
236 228 216 211 213 217 219 220 220 220 221 220 220 222 226 229 233 237 241 242 242 240 239 238 238 240 243 246 248 251 255 260 265 270 275 278 278 278 278 279 279 280 280 281 281 282 283 283 284 285 285 283 282 281 282 283 283 284 285 286 287 288 290 292 294 296 298 300 302 304 305 306 306 307 306 305 304 304 304 304 304 302 301 301 305
231 226 216 209 206 207 210 215 219 221 222 223 223 226 229 232 234 235 235 235 234 235 237 239 242 245 248 251 254 258 262 265 268 273 278 280 280 280 281 282 282 281 281 281 282 283 285 285 285 285 284 282 280 280 281 282 282 282 283 285 286 288 289 291 294 296 298 300 302 303 304 304 304 304 304 304 304 304 304 303 302 300 298 299 303
222 226 225 216 207 203 203 207 212 217 221 224 226 228 230 232 231 231 229 229 230 234 237 240 244 248 252 255 259 262 265 267 271 275 279 280 280 281 282 282 282 281 281 281 282 282 284 285 284 283 282 281 279 279 280 280 280 281 283 285 286 288 290 291 294 296 298 300 301 302 302 302 302 303 302 302 302 302 302 301 300 299 296 297 301
220 227 227 217 206 200 198 197 199 203 210 217 223 228 231 232 232 231 230 230 231 233 236 239 244 250 254 258 262 264 266 269 274 277 280 280 280 280 281 280 280 279 280 281 281 282 283 283 283 283 282 280 279 278 279 279 280 281 283 285 286 288 290 292 294 296 298 299 300 301 301 301 302 301 301 301 301 301 301 300 299 298 297 297 299
Height
5829 5831 5834 5837 5838 5839 5841 5843 5844 5846 5848 5849 5850 5850 5850 5852 5853 5853 5854 5853 5852 5851 5850 5850 5851 5851 5851 5850 5850 5850 5850 5849 5849 5848 5847 5845 5846 5846 5846 5846 5845 5844 5844 5844 5843 5842 5842 5842 5841 5840 5840 5839 5838 5838 5837 5837 5836 5836 5837 5836 5836 5835 5835 5835 5836 5836 5835 5835 5835 5835 5835 5834 5833 5832 5831 5830 5829 5827 5825 5823 5822 5820 5818 5817 5815
5823 5827 5830 5832 5834 5837 5839 5840 5841 5843 5845 5847 5848 5848 5847 5849 5850 5851 5851 5850 5849 5848 5848 5848 5849 5849 5848 5848 5848 5848 5848 5847 5847 5846 5844 5844 5844 5844 5844 5843 5843 5842 5842 5842 5842 5841 5840 5840 5840 5839 5838 5838 5837 5836 5836 5836 5835 5835 5835 5835 5835 5835 5835 5835 5835 5835 5835 5834 5834 5834 5833 5832 5831 5830 5829 5828 5826 5825 5823 5821 5820 5818 5816 5814 5812
5818 5823 5827 5829 5831 5833 5835 5837 5838 5840 5842 5843 5845 5845 5845 5846 5847 5848 5848 5847 5845 5845 5845 5846 5846 5846 5846 5846 5846 5846 5845 5844 5844 5844 5842 5842 5842 5842 5842 5842 5841 5841 5840 5840 5839 5839 5839 5838 5838 5837 5837 5837 5836 5835 5835 5835 5835 5834 5834 5835 5835 5835 5834 5834 5834 5834 5833 5833 5833 5832 5831 5830 5829 5828 5827 5826 5824 5822 5821 5819 5818 5816 5814 5812 5810
5814 5818 5823 5825 5827 5829 5832 5834 5835 5837 5839 5840 5842 5842 5842 5843 5844 5845 5844 5843 5842 5842 5843 5843 5843 5844 5844 5844 5844 5843 5843 5842 5842 5841 5840 5840 5840 5840 5841 5840 5839 5839 5838 5837 5836 5836 5836 5836 5836 5835 5835 5835 5834 5834 5833 5833 5833 5833 5833 5833 5833 5833 5833 5833 5832 5832 5831 5831 5830 5830 5829 5828 5826 5826 5825 5823 5822 5820 5819 5817 5816 5814 5812 5810 5807
5809 5813 5817 5821 5823 5826 5828 5830 5831 5833 5835 5837 5838 5838 5838 5839 5841 5841 5841 5840 5839 5839 5840 5840 5841 5841 5841 5841 5841 5841 5840 5840 5839 5839 5838 5837 5837 5838 5838 5838 5838 5838 5837 5835 5834 5834 5834 5833 5833 5833 5832 5832 5832 5832 5832 5832 5832 5832 5832 5832 5832 5832 5832 5831 5830 5830 5830 5829 5829 5828 5828 5826 5825 5824 5823 5821 5820 5818 5817 5815 5814 5812 5809 5807 5805
5805 5808 5812 5816 5819 5821 5824 5827 5828 5830 5833 5834 5834 5834 5834 5836 5837 5838 5837 5837 5836 5836 5837 5837 5838 5838 5839 5839 5839 5839 5838 5838 5837 5836 5836 5835 5835 5835 5836 5836 5836 5837 5836 5835 5834 5833 5833 5832 5832 5831 5831 5830 5830 5830 5830 5830 5830 5830 5830 5830 5830 5830 5830 5829 5829 5828 5828 5827 5827 5826 5826 5825 5824 5822 5821 5820 5818 5816 5814 5813 5811 5809 5806 5804 5801
5801 5803 5807 5811 5814 5817 5821 5825 5826 5827 5829 5830 5830 5830 5831 5832 5833 5834 5834 5833 5833 5833 5833 5834 5835 5835 5836 5836 5837 5836 5836 5835 5835 5833 5833 5833 5833 5833 5834 5834 5834 5834 5833 5833 5832 5832 5832 5831 5831 5830 5829 5829 5829 5828 5828 5828 5829 5829 5829 5829 5829 5828 5828 5828 5827 5826 5826 5825 5825 5824 5824 5823 5822 5820 5819 5818 5816 5814 5812 5809 5808 5806 5803 5800 5798
5797 5800 5803 5807 5811 5814 5819 5823 5823 5822 5824 5825 5826 5827 5827 5828 5830 5830 5830 5830 5830 5830 5830 5831 5831 5832 5834 5834 5834 5834 5834 5833 5832 5831 5831 5831 5831 5831 5831 5831 5831 5830 5830 5830 5830 5830 5830 5830 5829 5829 5828 5828 5828 5827 5827 5827 5827 5827 5827 5827 5827 5827 5826 5825 5825 5824 5824 5823 5822 5821 5821 5820 5819 5818 5817 5815 5814 5812 5810 5807 5804 5802 5800 5797 5794
5794 5797 5800 5804 5808 5811 5815 5818 5818 5817 5819 5820 5821 5823 5823 5824 5826 5826 5826 5827 5827 5827 5827 5828 5828 5830 5831 5831 5831 5831 5831 5831 5830 5829 5829 5829 5828 5828 5829 5829 5828 5828 5827 5827 5827 5827 5827 5828 5828 5827 5827 5826 5826 5826 5825 5825 5826 5826 5826 5826 5826 5825 5824 5823 5823 5822 5821 5820 5819 5818 5817 5817 5816 5815 5814 5812 5811 5809 5807 5804 5802 5799 5796 5793 5790
5790 5794 5798 5802 5804 5807 5810 5812 5811 5813 5815 5816 5817 5818 5819 5820 5822 5823 5824 5824 5824 5823 5824 5824 5826 5828 5828 5828 5828 5828 5829 5828 5827 5827 5827 5827 5826 5826 5827 5826 5825 5825 5825 5825 5824 5824 5825 5825 5825 5825 5825 5824 5824 5824 5824 5824 5824 5824 5824 5824 5824 5823 5822 5821 5821 5820 5819 5818 5817 5816 5815 5814 5813 5812 5810 5809 5807 5806 5804 5801 5799 5796 5793 5790 5788
5787 5791 5794 5798 5801 5803 5805 5806 5807 5808 5810 5812 5813 5815 5816 5817 5819 5820 5820 5821 5820 5820 5821 5822 5824 5825 5825 5825 5826 5826 5826 5825 5825 5825 5825 5824 5824 5824 5824 5824 5823 5823 5823 5822 5822 5822 5823 5823 5823 5823 5823 5822 5822 5822 5822 5822 5822 5822 5822 5822 5821 5821 5820 5819 5818 5817 5816 5815 5814 5813 5812 5811 5810 5808 5807 5805 5803 5802 5800 5798 5795 5792 5789 5786 5784
5784 5787 5790 5793 5797 5799 5801 5803 5803 5804 5807 5809 5810 5811 5812 5813 5815 5816 5817 5817 5817 5817 5818 5820 5822 5822 5822 5823 5823 5823 5823 5823 5823 5823 5823 5822 5822 5822 5822 5821 5821 5821 5820 5820 5819 5820 5821 5821 5821 5821 5821 5820 5820 5820 5820 5820 5821 5820 5820 5820 5819 5819 5818 5817 5816 5815 5814 5813 5812 5811 5810 5808 5807 5805 5804 5802 5800 5798 5796 5793 5791 5788 5786 5783 5780
5781 5783 5785 5789 5794 5796 5798 5799 5799 5801 5804 5806 5807 5808 5808 5809 5811 5813 5814 5813 5813 5814 5816 5818 5819 5819 5819 5820 5821 5821 5820 5820 5821 5821 5821 5821 5820 5820 5820 5819 5819 5819 5818 5818 5817 5818 5819 5819 5819 5819 5819 5818 5818 5818 5819 5819 5819 5818 5818 5817 5817 5816 5815 5814 5813 5812 5811 5810 5809 5808 5807 5806 5804 5803 5801 5799 5797 5794 5792 5789 5787 5784 5781 5779 5776
5778 5780 5782 5785 5790 5793 5795 5796 5796 5798 5801 5802 5803 5805 5805 5806 5808 5809 5810 5810 5811 5813 5814 5816 5816 5816 5817 5818 5818 5818 5818 5818 5818 5819 5819 5818 5818 5818 5818 5818 5817 5816 5816 5816 5816 5816 5817 5817 5817 5817 5817 5817 5817 5817 5817 5817 5816 5816 5816 5815 5814 5813 5812 5811 5811 5810 5809 5808 5807 5806 5805 5803 5802 5800 5798 5796 5793 5791 5789 5786 5783 5780 5777 5775 5772
5776 5776 5778 5781 5786 5789 5790 5792 5793 5796 5798 5798 5800 5801 5802 5803 5804 5806 5806 5808 5810 5811 5811 5812 5813 5813 5814 5815 5815 5815 5816 5816 5816 5816 5816 5816 5816 5816 5816 5816 5815 5814 5814 5814 5815 5815 5815 5815 5815 5815 5815 5815 5815 5815 5815 5814 5814 5814 5813 5812 5812 5811 5810 5809 5808 5807 5806 5805 5804 5803 5802 5801 5799 5797 5795 5793 5790 5788 5785 5782 5779 5776 5773 5771 5768
5771 5772 5774 5778 5782 5784 5786 5788 5790 5793 5794 5795 5797 5798 5799 5800 5801 5803 5804 5805 5807 5808 5808 5809 5809 5810 5811 5812 5813 5813 5813 5813 5813 5814 5814 5814 5814 5814 5814 5814 5813 5813 5812 5812 5813 5813 5813 5813 5813 5813 5813 5813 5813 5813 5813 5812 5812 5811 5811 5810 5809 5808 5807 5807 5806 5805 5804 5803 5802 5801 5799 5798 5796 5794 5792 5789 5787 5784 5782 5779 5776 5773 5769 5766 5763
5765 5769 5772 5775 5778 5780 5782 5785 5787 5789 5791 5792 5794 5795 5796 5797 5798 5799 5801 5803 5805 5804 5805 5805 5806 5808 5809 5809 5810 5810 5810 5811 5811 5811 5811 5812 5812 5812 5812 5812 5811 5811 5810 5810 5810 5811 5811 5811 5811 5811 5811 5811 5811 5811 5810 5810 5810 5809 5808 5808 5807 5806 5805 5804 5803 5802 5801 5800 5799 5798 5797 5795 5793 5791 5788 5786 5783 5780 5778 5775 5772 5769 5766 5762 5759
5761 5765 5769 5771 5774 5776 5779 5782 5784 5786 5788 5789 5790 5791 5791 5793 5795 5797 5799 5800 5801 5801 5801 5802 5804 5805 5806 5806 5807 5807 5808 5808 5808 5809 5809 5809 5810 5810 5810 5809 5809 5809 5808 5808 5808 5809 5809 5809 5809 5809 5809 5809 5809 5809 5808 5808 5807 5807 5806 5805 5804 5804 5803 5802 5801 5800 5799 5798 5796 5795 5793 5792 5789 5787 5785 5782 5779 5777 5774 5771 5769 5766 5762 5759 5756
5757 5761 5765 5769 5771 5773 5776 5779 5781 5783 5784 5785 5786 5786 5787 5789 5792 5794 5795 5796 5797 5797 5798 5800 5802 5802 5803 5803 5804 5805 5805 5805 5805 5806 5806 5807 5807 5807 5807 5807 5807 5807 5806 5806 5806 5807 5807 5807 5807 5807 5807 5807 5807 5806 5806 5805 5805 5804 5804 5803 5802 5801 5800 5799 5798 5797 5796 5795 5793 5792 5790 5788 5786 5783 5781 5778 5775 5773 5770 5767 5764 5761 5758 5755 5752
5754 5758 5763 5767 5769 5770 5774 5775 5776 5778 5779 5780 5781 5783 5784 5787 5789 5791 5792 5793 5794 5794 5796 5798 5799 5799 5800 5800 5801 5802 5802 5802 5803 5803 5804 5804 5805 5805 5804 5805 5805 5805 5804 5804 5803 5804 5804 5804 5805 5805 5804 5804 5804 5804 5803 5803 5802 5802 5801 5800 5799 5798 5797 5796 5795 5794 5793 5792 5790 5788 5786 5784 5782 5779 5777 5774 5771 5769 5766 5763 5760 5757 5754 5751 5748
5753 5756 5760 5763 5765 5768 5770 5771 5772 5773 5774 5775 5777 5779 5781 5784 5786 5788 5789 5790 5791 5792 5793 5795 5796 5796 5797 5797 5798 5799 5799 5800 5800 5801 5801 5802 5802 5802 5802 5802 5803 5803 5802 5801 5801 5801 5802 5802 5802 5802 5802 5802 5802 5801 5801 5800 5800 5799 5798 5798 5796 5796 5794 5793 5792 5791 5790 5788 5786 5784 5782 5780 5778 5775 5772 5770 5767 5764 5761 5759 5756 5753 5750 5747 5744
5751 5755 5757 5760 5762 5764 5766 5767 5768 5769 5770 5772 5774 5776 5778 5781 5783 5785 5785 5787 5788 5789 5791 5792 5792 5793 5794 5794 5795 5796 5797 5797 5797 5798 5798 5799 5799 5799 5799 5800 5800 5800 5799 5799 5798 5799 5799 5799 5800 5800 5800 5800 5799 5799 5798 5798 5797 5796 5796 5794 5793 5792 5791 5790 5789 5787 5786 5784 5782 5780 5778 5776 5773 5771 5768 5766 5763 5760 5757 5754 5752 5749 5746 5743 5739
5748 5752 5755 5757 5758 5760 5762 5763 5764 5765 5767 5769 5770 5773 5775 5777 5780 5781 5783 5784 5786 5786 5787 5788 5789 5790 5791 5791 5792 5793 5794 5794 5794 5795 5796 5796 5796 5796 5796 5797 5798 5798 5797 5796 5796 5796 5796 5797 5797 5797 5797 5797 5796 5796 5795 5794 5794 5793 5792 5791 5790 5789 5788 5787 5785 5784 5782 5780 5778 5776 5774 5771 5769 5766 5764 5761 5759 5756 5753 5750 5747 5745 5741 5738 5735
5744 5747 5751 5754 5754 5755 5757 5759 5760 5762 5764 5765 5767 5770 5772 5774 5777 5778 5780 5782 5783 5783 5784 5785 5787 5787 5788 5789 5789 5790 5791 5791 5791 5792 5793 5793 5793 5793 5794 5795 5795 5795 5794 5794 5794 5794 5794 5794 5794 5794 5794 5794 5793 5793 5792 5791 5790 5789 5788 5787 5786 5785 5784 5783 5782 5780 5778 5775 5773 5772 5769 5767 5765 5762 5760 5757 5755 5752 5749 5746 5743 5740 5737 5734 5731
5739 5742 5746 5750 5750 5752 5754 5756 5757 5759 5761 5763 5765 5767 5769 5771 5773 5775 5777 5779 5780 5780 5781 5783 5783 5784 5785 5786 5786 5787 5788 5788 5789 5790 5790 5791 5791 5791 5791 5792 5792 5791 5791 5791 5791 5791 5791 5791 5791 5791 5791 5791 5790 5789 5788 5787 5786 5786 5785 5784 5783 5782 5781 5779 5778 5776 5774 5772 5770 5768 5765 5763 5761 5758 5756 5753 5751 5748 5745 5742 5739 5736 5733 5730 5727
5735 5738 5742 5746 5748 5749 5751 5753 5754 5756 5758 5761 5762 5764 5766 5768 5770 5772 5774 5776 5777 5777 5778 5780 5780 5781 5782 5783 5784 5784 5785 5785 5786 5787 5788 5788 5788 5788 5789 5789 5789 5789 5788 5788 5788 5788 5788 5788 5788 5788 5788 5787 5786 5785 5784 5784 5783 5782 5781 5780 5780 5779 5777 5776 5774 5772 5770 5768 5766 5764 5762 5759 5757 5754 5752 5749 5747 5744 5741 5738 5736 5732 5729 5726 5723
5730 5734 5738 5742 5744 5746 5747 5750 5752 5753 5755 5757 5759 5760 5762 5764 5767 5769 5771 5773 5773 5774 5775 5776 5777 5778 5779 5780 5781 5781 5782 5783 5784 5784 5785 5785 5785 5786 5786 5786 5786 5786 5785 5785 5785 5785 5785 5785 5785 5785 5784 5783 5782 5782 5781 5780 5780 5779 5777 5776 5776 5775 5773 5772 5770 5768 5766 5764 5762 5760 5758 5755 5753 5751 5748 5746 5743 5741 5738 5735 5732 5728 5725 5723 5720
5726 5730 5732 5736 5740 5742 5744 5746 5748 5749 5751 5752 5755 5757 5759 5761 5763 5765 5767 5769 5770 5771 5772 5773 5774 5775 5776 5777 5778 5778 5779 5780 5781 5781 5782 5782 5782 5783 5783 5783 5782 5782 5782 5782 5782 5782 5782 5782 5782 5782 5781 5780 5779 5778 5777 5777 5776 5775 5774 5773 5772 5770 5769 5768 5766 5764 5762 5760 5758 5756 5754 5752 5749 5747 5745 5742 5740 5737 5734 5731 5728 5725 5722 5719 5716
5721 5725 5727 5731 5735 5738 5740 5742 5744 5745 5747 5749 5752 5754 5756 5758 5759 5761 5763 5765 5766 5768 5769 5770 5771 5772 5773 5774 5775 5775 5776 5776 5778 5778 5778 5779 5779 5780 5780 5780 5780 5779 5779 5779 5780 5780 5780 5780 5779 5778 5778 5777 5776 5775 5774 5774 5773 5772 5770 5769 5768 5767 5765 5764 5762 5760 5759 5756 5754 5752 5750 5748 5745 5743 5741 5738 5736 5733 5730 5727 5724 5721 5718 5716 5713
5717 5720 5723 5727 5730 5732 5735 5737 5738 5740 5743 5746 5749 5751 5752 5754 5756 5757 5759 5761 5763 5764 5766 5767 5767 5768 5770 5771 5772 5773 5773 5773 5774 5775 5775 5776 5776 5777 5777 5777 5777 5777 5776 5777 5777 5777 5777 5777 5776 5775 5775 5774 5772 5771 5771 5770 5769 5768 5767 5766 5764 5763 5762 5760 5758 5757 5755 5753 5750 5749 5746 5744 5742 5739 5737 5734 5732 5729 5726 5723 5720 5717 5715 5712 5710
5713 5716 5719 5722 5724 5727 5730 5732 5735 5737 5740 5743 5745 5747 5748 5751 5753 5754 5756 5758 5759 5761 5762 5763 5764 5765 5766 5768 5769 5770 5770 5770 5771 5772 5772 5772 5773 5774 5774 5774 5774 5774 5774 5774 5774 5774 5774 5773 5772 5772 5771 5770 5769 5768 5767 5767 5765 5764 5763 5762 5761 5759 5758 5757 5755 5753 5751 5749 5747 5745 5743 5740 5738 5735 5733 5731 5728 5725 5722 5719 5716 5714 5712 5709 5706
5709 5712 5715 5717 5720 5723 5726 5729 5732 5735 5737 5739 5741 5743 5745 5748 5750 5752 5753 5754 5756 5757 5759 5760 5761 5762 5763 5765 5766 5766 5767 5767 5768 5769 5769 5769 5770 5771 5771 5771 5771 5771 5771 5771 5771 5771 5771 5770 5769 5769 5768 5767 5766 5764 5764 5763 5762 5760 5759 5758 5757 5755 5754 5753 5751 5750 5747 5745 5743 5741 5739 5736 5734 5731 5729 5727 5724 5721 5718 5715 5713 5711 5708 5705 5703
5705 5709 5711 5713 5716 5720 5723 5726 5729 5731 5734 5736 5738 5739 5742 5745 5747 5748 5750 5751 5752 5754 5756 5756 5757 5759 5761 5762 5762 5763 5763 5764 5765 5765 5766 5766 5767 5768 5768 5768 5767 5767 5768 5768 5768 5767 5767 5766 5766 5765 5764 5764 5763 5761 5760 5759 5758 5756 5755 5754 5753 5752 5751 5749 5747 5746 5743 5741 5739 5737 5735 5732 5730 5728 5725 5723 5720 5717 5714 5712 5709 5707 5705 5702 5699
5702 5706 5708 5710 5713 5716 5719 5721 5724 5728 5730 5732 5733 5735 5738 5740 5743 5745 5746 5748 5749 5751 5752 5753 5755 5756 5758 5759 5759 5759 5760 5761 5762 5762 5763 5763 5764 5765 5765 5764 5764 5764 5764 5765 5764 5764 5763 5763 5762 5761 5761 5760 5759 5758 5757 5756 5754 5753 5752 5751 5749 5748 5747 5745 5743 5741 5739 5737 5735 5733 5731 5728 5726 5724 5721 5719 5716 5713 5711 5708 5706 5703 5701 5698 5696
5697 5701 5704 5706 5709 5712 5715 5718 5721 5724 5726 5727 5729 5732 5734 5737 5739 5741 5743 5744 5746 5747 5748 5750 5752 5754 5755 5755 5755 5756 5757 5758 5758 5759 5759 5760 5761 5761 5761 5761 5760 5760 5761 5761 5761 5760 5760 5759 5758 5758 5757 5756 5755 5754 5753 5752 5750 5749 5748 5747 5746 5745 5743 5741 5739 5738 5736 5734 5732 5729 5727 5724 5722 5720 5718 5715 5712 5710 5707 5704 5702 5700 5698 5695 5692
5694 5697 5700 5703 5705 5708 5711 5715 5718 5720 5722 5724 5726 5728 5731 5734 5736 5738 5739 5741 5742 5743 5745 5747 5749 5751 5752 5752 5752 5753 5754 5754 5755 5755 5756 5757 5757 5758 5758 5757 5757 5757 5757 5757 5757 5756 5756 5756 5755 5754 5754 5753 5751 5749 5748 5747 5746 5745 5744 5743 5742 5741 5739 5737 5735 5734 5732 5730 5728 5726 5723 5720 5718 5716 5714 5711 5709 5706 5703 5701 5699 5697 5694 5692 5689
5691 5693 5696 5699 5701 5704 5708 5711 5714 5716 5718 5720 5722 5724 5727 5730 5732 5734 5736 5737 5738 5739 5742 5744 5746 5747 5748 5749 5749 5750 5750 5751 5751 5752 5752 5753 5754 5754 5754 5753 5753 5753 5753 5753 5753 5753 5752 5752 5752 5751 5750 5749 5747 5745 5743 5743 5741 5741 5740 5739 5738 5737 5735 5733 5731 5729 5728 5726 5724 5722 5720 5717 5715 5713 5710 5708 5705 5702 5700 5698 5696 5693 5691 5688 5686
5688 5691 5694 5696 5698 5701 5704 5706 5709 5711 5714 5716 5718 5721 5723 5726 5728 5730 5731 5733 5734 5736 5739 5741 5743 5744 5745 5745 5747 5747 5747 5747 5747 5747 5748 5749 5750 5750 5750 5750 5750 5750 5750 5749 5749 5749 5749 5749 5748 5747 5746 5745 5743 5741 5739 5738 5737 5736 5736 5735 5734 5733 5731 5728 5727 5725 5724 5722 5721 5718 5716 5713 5711 5709 5707 5704 5702 5699 5697 5695 5693 5690 5688 5685 5682
5685 5689 5692 5694 5697 5699 5700 5702 5704 5707 5710 5712 5715 5717 5720 5722 5724 5726 5728 5729 5731 5733 5735 5737 5739 5740 5741 5742 5743 5744 5744 5744 5743 5743 5744 5745 5746 5746 5746 5746 5746 5746 5746 5746 5746 5745 5745 5745 5744 5743 5742 5741 5739 5737 5736 5734 5733 5731 5731 5730 5730 5729 5727 5725 5723 5721 5720 5718 5717 5714 5712 5710 5708 5706 5703 5701 5698 5696 5694 5691 5689 5687 5685 5682 5679
5684 5688 5690 5692 5695 5697 5699 5700 5702 5704 5706 5709 5711 5714 5716 5718 5720 5722 5724 5725 5727 5728 5731 5733 5735 5736 5738 5739 5740 5740 5740 5740 5739 5739 5741 5742 5742 5742 5742 5742 5742 5743 5743 5743 5742 5742 5741 5740 5739 5738 5737 5736 5735 5733 5732 5730 5729 5727 5726 5726 5726 5725 5724 5722 5720 5718 5717 5715 5713 5711 5708 5706 5704 5702 5699 5697 5695 5693 5691 5688 5686 5684 5681 5679 5677
5682 5685 5687 5690 5692 5694 5696 5698 5699 5701 5703 5705 5708 5710 5712 5715 5717 5719 5720 5721 5723 5725 5727 5729 5731 5733 5734 5735 5736 5736 5736 5736 5736 5737 5737 5738 5738 5739 5739 5739 5739 5739 5739 5739 5739 5738 5737 5736 5735 5734 5733 5732 5730 5729 5727 5726 5725 5724 5722 5722 5721 5721 5719 5718 5716 5715 5713 5711 5709 5707 5705 5703 5701 5698 5696 5694 5692 5690 5687 5685 5683 5681 5679 5676 5674
5679 5681 5684 5686 5688 5690 5692 5694 5696 5698 5700 5702 5704 5707 5709 5711 5713 5714 5716 5717 5719 5721 5724 5726 5727 5728 5730 5730 5731 5732 5733 5733 5733 5734 5734 5735 5735 5736 5736 5736 5736 5736 5736 5735 5734 5734 5732 5731 5731 5730 5729 5727 5726 5724 5723 5722 5721 5720 5719 5718 5717 5717 5715 5713 5712 5711 5708 5706 5705 5703 5701 5699 5697 5695 5693 5690 5688 5686 5684 5682 5680 5678 5676 5673 5671
5676 5678 5680 5682 5683 5685 5688 5690 5692 5694 5696 5698 5701 5703 5705 5707 5709 5710 5711 5713 5716 5718 5720 5721 5723 5724 5725 5726 5726 5728 5729 5729 5730 5730 5731 5731 5732 5732 5732 5732 5732 5732 5732 5731 5730 5729 5728 5727 5726 5725 5724 5723 5722 5721 5720 5718 5717 5716 5715 5714 5713 5713 5711 5709 5708 5706 5704 5702 5701 5699 5698 5696 5693 5691 5689 5687 5685 5683 5681 5679 5677 5675 5673 5671 5668
5673 5675 5676 5677 5678 5681 5683 5685 5687 5689 5692 5694 5696 5699 5701 5703 5704 5706 5708 5710 5712 5714 5715 5717 5718 5720 5721 5721 5722 5723 5725 5725 5726 5727 5727 5727 5728 5728 5728 5728 5728 5728 5727 5726 5725 5725 5724 5723 5722 5721 5719 5718 5717 5717 5716 5714 5713 5712 5711 5710 5709 5708 5707 5706 5704 5702 5700 5699 5697 5695 5694 5692 5690 5687 5685 5683 5681 5679 5677 5675 5673 5672 5670 5668 5665
5666 5669 5671 5672 5673 5675 5678 5681 5683 5685 5688 5690 5692 5695 5697 5699 5700 5702 5704 5706 5708 5710 5711 5713 5714 5715 5716 5717 5718 5720 5721 5722 5722 5723 5723 5724 5724 5724 5724 5724 5724 5723 5722 5721 5721 5720 5719 5718 5717 5716 5715 5714 5713 5712 5711 5710 5709 5708 5707 5706 5705 5704 5703 5702 5700 5698 5697 5695 5693 5691 5689 5688 5686 5684 5681 5679 5677 5676 5674 5672 5670 5668 5667 5665 5663
5660 5662 5665 5667 5669 5671 5673 5676 5679 5681 5684 5686 5688 5691 5693 5695 5697 5699 5701 5702 5704 5705 5707 5708 5710 5711 5712 5713 5715 5716 5717 5718 5719 5719 5720 5720 5720 5720 5720 5720 5719 5718 5717 5716 5716 5715 5714 5713 5712 5711 5710 5709 5708 5707 5706 5705 5704 5703 5703 5702 5701 5700 5699 5698 5696 5695 5693 5691 5690 5688 5685 5683 5682 5680 5678 5676 5674 5672 5670 5669 5667 5665 5663 5662 5660
5660 5660 5660 5661 5664 5667 5669 5672 5675 5677 5680 5682 5685 5688 5690 5691 5693 5695 5697 5698 5700 5701 5703 5704 5705 5706 5708 5709 5711 5712 5713 5714 5714 5715 5715 5716 5716 5715 5715 5715 5714 5713 5712 5711 5711 5709 5709 5708 5707 5706 5706 5705 5704 5703 5702 5701 5700 5699 5699 5698 5697 5696 5695 5694 5692 5691 5689 5688 5686 5683 5681 5679 5677 5676 5674 5672 5670 5668 5667 5665 5663 5662 5660 5658 5656
5659 5659 5658 5658 5659 5661 5664 5668 5671 5674 5677 5680 5682 5684 5686 5688 5690 5692 5693 5695 5696 5698 5698 5699 5701 5702 5704 5705 5707 5708 5709 5709 5710 5711 5711 5711 5711 5711 5710 5710 5709 5708 5707 5706 5705 5704 5703 5702 5702 5701 5701 5700 5699 5698 5697 5697 5696 5695 5695 5694 5693 5692 5691 5689 5688 5687 5685 5684 5681 5679 5677 5675 5674 5672 5670 5668 5666 5665 5663 5661 5660 5658 5657 5655 5653
5654 5657 5658 5658 5657 5657 5659 5663 5668 5671 5674 5677 5679 5681 5683 5685 5687 5688 5690 5692 5693 5694 5695 5696 5697 5698 5700 5701 5702 5703 5704 5705 5706 5706 5707 5707 5706 5705 5705 5704 5703 5702 5701 5701 5700 5699 5698 5698 5697 5696 5696 5695 5694 5693 5693 5692 5691 5691 5690 5690 5688 5687 5686 5685 5684 5683 5681 5679 5677 5675 5673 5671 5670 5668 5666 5664 5662 5661 5659 5658 5656 5654 5653 5651 5649
5650 5653 5655 5656 5656 5654 5654 5658 5663 5667 5670 5674 5676 5678 5680 5682 5683 5685 5687 5688 5690 5691 5692 5693 5693 5695 5696 5697 5698 5699 5700 5700 5701 5702 5702 5702 5701 5700 5699 5698 5697 5696 5696 5696 5695 5694 5694 5693 5693 5692 5691 5691 5690 5689 5688 5687 5687 5686 5686 5685 5684 5683 5682 5680 5679 5678 5677 5675 5673 5671 5669 5668 5666 5664 5662 5660 5659 5657 5655 5654 5652 5650 5649 5647 5646
5648 5651 5652 5653 5654 5652 5651 5653 5657 5662 5666 5670 5673 5675 5678 5679 5681 5682 5684 5685 5686 5688 5689 5689 5690 5691 5692 5693 5693 5694 5695 5696 5697 5697 5697 5696 5696 5695 5694 5693 5693 5692 5691 5691 5690 5690 5689 5689 5688 5687 5687 5687 5685 5684 5683 5683 5682 5682 5682 5681 5679 5678 5677 5676 5675 5674 5672 5670 5669 5667 5665 5664 5662 5660 5658 5656 5655 5653 5651 5650 5648 5647 5645 5644 5642